Terminal Aerodrome Forecast
Issued by NWS

Home | Current Version | Previous Version | Text Only | Print | Product List | Glossary On
Versions: 1 2 3 4 5 6 7 8 9 10 11 12 13 14 15 16 17 18 19 20 21 22 23 24 25 26 27 28 29 30 31 32 33 34 35 36 37 38 39 40 41 42 43 44 45 46 47 48 49 50
000
FTUS46 KEKA 252027 AAA
TAFACV
TAF AMD
KACV 252027Z 2520/2618 31007KT P6SM BKN006 OVC012
     FM252200 31009KT P6SM BKN009 OVC012
      TEMPO 2522/2524 BKN015
     FM260000 31009KT P6SM SCT015 SCT025
     FM260200 29006KT P6SM BKN007 OVC012
     FM260400 18003KT 6SM BR BKN005=

USA.gov is the U.S. government's official web portal to all federal, state and local government web resources and services.